Location: Demre
(36.2444°N, 29.9850°E)
Time: 11:47:48
(UTC+00:00)

Cosmos 1953 Rocket - Pass Details

Date: 11 March 2026
Orbit: 599 x 626 km, 82.5° (Epoch: 11 April)

Event Time Altitude Azimuth Distance (km) Brightness Sun altitude
Rises 16:48:32 0° 164° (SSE) 2,831 6.8 -9.8°
Reaches altitude 10° 16:50:54 10° 154° (SSE) 1,932 5.8 -10.3°
Maximum altitude 16:54:42 32° 91° (E) 1,033 4.2 -11.1°
Drops below altitude 10° 16:58:31 10° 28° (NNE) 1,943 5.9 -11.8°
Sets 17:00:54 0° 18° (NNE) 2,852 6.8 -12.3°
